| time (UTC) | temp F | wind direction | speed knots | gust knots | rain 1hr in | rain 24hr in | rain mn in | humidity % | barometer mb |
| 20260507160016 | 55 | 0.0 | 0.0 | 0.01 | 0.03 | 0.02 | 93 | 1013.0 | |
| 20260507155016 | 55 | 0.0 | 0.0 | 0.01 | 0.04 | 0.02 | 92 | 1013.1 | |
| 20260507154016 | 55 | 0.0 | 0.0 | 0.01 | 0.04 | 0.02 | 91 | 1013.1 | |
| 20260507153036 | 55 | 0.0 | 0.0 | 0.00 | 0.03 | 0.01 | 89 | 1013.1 | |
| 20260507152016 | 56 | 0.0 | 0.0 | 0.00 | 0.03 | 0.01 | 88 | 1013.0 | |
| 20260507151016 | 56 | 0.0 | 0.0 | 0.00 | 0.03 | 0.01 | 87 | 1012.9 | |
| 20260507150016 | 56 | 0.0 | 0.0 | 0.00 | 0.03 | 0.01 | 86 | 1013.0 | |
| 20260507145016 | 56 | 0.0 | 0.0 | 0.00 | 0.03 | 0.01 | 86 | 1012.9 | |
| 20260507144016 | 56 | 0.0 | 0.9 | 0.00 | 0.03 | 0.01 | 86 | 1012.7 | |
| 20260507143016 | 56 | 0.0 | 1.7 | 0.00 | 0.04 | 0.01 | 86 | 1012.8 | |
| 20260507142016 | 56 | 0.0 | 1.7 | 0.00 | 0.06 | 0.01 | 86 | 1013.0 | |
| 20260507141016 | 57 | 0.0 | 0.9 | 0.00 | 0.09 | 0.01 | 88 | 1013.1 | |
| 20260507140016 | 56 | 0.0 | 0.9 | 0.00 | 0.11 | 0.01 | 89 | 1013.1 | |
| 20260507135017 | 56 | 0.0 | 1.7 | 0.00 | 0.12 | 0.01 | 88 | 1013.1 | |
| 20260507134015 | 57 | 68 | 0.9 | 1.7 | 0.00 | 0.12 | 0.01 | 88 | 1013.1 |
| 20260507133016 | 57 | 0.0 | 0.9 | 0.00 | 0.12 | 0.01 | 88 | 1012.9 | |
| 20260507132016 | 57 | 0.0 | 1.7 | 0.00 | 0.12 | 0.01 | 88 | 1012.9 | |
| 20260507131016 | 58 | 0.0 | 1.7 | 0.00 | 0.12 | 0.01 | 88 | 1012.9 | |
| 20260507130016 | 58 | 0.0 | 0.9 | 0.00 | 0.12 | 0.01 | 89 | 1012.7 | |
| 20260507125017 | 57 | 0.0 | 0.0 | 0.00 | 0.12 | 0.01 | 89 | 1012.8 | |
| 20260507124016 | 57 | 0.0 | 0.0 | 0.00 | 0.12 | 0.01 | 89 | 1012.9 | |
| 20260507123016 | 57 | 0.0 | 0.0 | 0.00 | 0.12 | 0.01 | 89 | 1012.9 | |
| 20260507122016 | 57 | 0.0 | 0.0 | 0.00 | 0.12 | 0.01 | 88 | 1012.8 | |
| 20260507121016 | 56 | 0.0 | 0.0 | 0.00 | 0.12 | 0.01 | 88 | 1012.7 | |
| 20260507120016 | 56 | 0.0 | 0.0 | 0.00 | 0.12 | 0.01 | 88 | 1012.4 | |
| 20260507115036 | 56 | 0.0 | 0.0 | 0.00 | 0.12 | 0.01 | 88 | 1012.8 | |
| 20260507114016 | 56 | 0.0 | 0.0 | 0.00 | 0.12 | 0.01 | 88 | 1012.8 | |
| 20260507113036 | 56 | 0.0 | 0.0 | 0.00 | 0.12 | 0.01 | 88 | 1012.4 | |
| 20260507112015 | 56 | 0.0 | 0.0 | 0.00 | 0.12 | 0.01 | 88 | 1012.2 | |
| 20260507111015 | 56 | 0.0 | 0.0 | 0.00 | 0.12 | 0.01 | 87 | 1012.3 | |
| 20260507110015 | 56 | 0.0 | 0.0 | 0.00 | 0.12 | 0.01 | 87 | 1012.4 | |
| 20260507105036 | 56 | 0.0 | 0.0 | 0.00 | 0.12 | 0.01 | 86 | 1012.0 | |
| 20260507104016 | 56 | 0.0 | 0.0 | 0.00 | 0.12 | 0.01 | 86 | 1012.1 | |
| 20260507103015 | 56 | 0.0 | 0.0 | 0.00 | 0.12 | 0.01 | 85 | 1012.0 | |
| 20260507102016 | 56 | 0.0 | 1.7 | 0.00 | 0.12 | 0.01 | 86 | 1011.6 | |
| 20260507101015 | 56 | 0.0 | 1.7 | 0.00 | 0.12 | 0.01 | 85 | 1011.6 | |
| 20260507100015 | 57 | 45 | 0.9 | 2.6 | 0.00 | 0.12 | 0.01 | 86 | 1011.9 |
| 20260507095017 | 57 | 0.0 | 0.0 | 0.00 | 0.12 | 0.01 | 89 | 1012.2 | |
| 20260507094016 | 57 | 0.0 | 0.0 | 0.01 | 0.12 | 0.01 | 89 | 1012.0 | |
| 20260507093015 | 57 | 0.0 | 0.0 | 0.01 | 0.12 | 0.01 | 89 | 1012.1 | |
| 20260507092016 | 57 | 0.0 | 0.0 | 0.01 | 0.12 | 0.01 | 92 | 1011.9 | |
| 20260507091016 | 58 | 0.0 | 0.0 | 0.01 | 0.12 | 0.01 | 91 | 1011.7 | |
| 20260507090015 | 58 | 0.0 | 1.7 | 0.01 | 0.12 | 0.01 | 92 | 1011.9 | |
| 20260507085015 | 59 | 0.0 | 1.7 | 0.01 | 0.12 | 0.01 | 91 | 1011.8 | |
| 20260507084015 | 59 | 68 | 0.9 | 1.7 | 0.00 | 0.11 | 0.00 | 90 | 1011.5 |
| 20260507083035 | 60 | 0.0 | 2.6 | 0.00 | 0.11 | 0.00 | 91 | 1011.7 | |
| 20260507082015 | 60 | 68 | 1.7 | 3.5 | 0.00 | 0.11 | 0.00 | 91 | 1011.5 |
| 20260507081015 | 61 | 68 | 0.9 | 2.6 | 0.00 | 0.11 | 0.00 | 92 | 1011.6 |
| 20260507080015 | 63 | 45 | 0.9 | 2.6 | 0.00 | 0.11 | 0.00 | 93 | 1011.3 |
| 20260507075016 | 64 | 68 | 1.7 | 4.3 | 0.00 | 0.11 | 0.00 | 94 | 1010.5 |
| 20260507074015 | 65 | 45 | 0.9 | 2.6 | 0.00 | 0.11 | 0.00 | 95 | 1010.5 |
| 20260507073015 | 65 | 0.0 | 0.9 | 0.00 | 0.11 | 0.00 | 95 | 1010.5 | |
| 20260507072015 | 65 | 0.0 | 0.0 | 0.00 | 0.11 | 0.00 | 95 | 1010.4 | |
| 20260507071015 | 66 | 0.0 | 0.0 | 0.00 | 0.11 | 0.00 | 94 | 1010.6 | |
| 20260507070015 | 66 | 0.0 | 0.0 | 0.00 | 0.11 | 0.00 | 94 | 1010.7 | |
| 20260507065015 | 66 | 0.0 | 0.0 | 0.00 | 0.11 | 0.00 | 93 | 1010.3 | |
| 20260507064015 | 67 | 0.0 | 0.0 | 0.00 | 0.11 | 0.00 | 92 | 1010.0 | |
| 20260507063015 | 67 | 0.0 | 0.0 | 0.00 | 0.11 | 0.00 | 90 | 1009.8 | |
| 20260507062015 | 68 | 0.0 | 0.9 | 0.00 | 0.11 | 0.00 | 90 | 1009.7 | |
| 20260507061015 | 68 | 0.0 | 0.9 | 0.00 | 0.11 | 0.00 | 89 | 1009.4 | |
| 20260507060015 | 68 | 0.0 | 0.9 | 0.00 | 0.11 | 0.00 | 89 | 1009.2 | |
| 20260507055015 | 68 | 0.0 | 1.7 | 0.00 | 0.11 | 0.00 | 88 | 1009.6 | |
| 20260507054035 | 69 | 0.0 | 1.7 | 0.00 | 0.11 | 0.00 | 87 | 1009.4 | |
| 20260507053015 | 69 | 0.0 | 1.7 | 0.00 | 0.11 | 0.00 | 87 | 1009.7 | |
| 20260507052015 | 69 | 0.0 | 0.9 | 0.00 | 0.11 | 0.00 | 87 | 1009.8 | |
| 20260507051015 | 69 | 0.0 | 1.7 | 0.00 | 0.11 | 0.00 | 87 | 1010.1 | |
| 20260507050015 | 68 | 0.0 | 1.7 | 0.00 | 0.11 | 0.00 | 87 | 1010.5 | |
| 20260507045015 | 68 | 0.0 | 2.6 | 0.00 | 0.11 | 0.00 | 87 | 1010.6 | |
| 20260507044015 | 68 | 0.0 | 1.7 | 0.00 | 0.11 | 0.00 | 87 | 1010.8 | |
| 20260507043015 | 68 | 248 | 0.9 | 3.5 | 0.00 | 0.11 | 0.00 | 87 | 1010.9 |
| 20260507042015 | 69 | 0.0 | 1.7 | 0.00 | 0.11 | 0.00 | 87 | 1011.0 | |
| 20260507041015 | 69 | 0.0 | 1.7 | 0.00 | 0.11 | 0.00 | 87 | 1010.5 | |
| 20260507040015 | 69 | 270 | 0.9 | 2.6 | 0.00 | 0.11 | 0.00 | 87 | 1010.6 |
| 20260507035017 | 69 | 270 | 0.9 | 4.3 | 0.00 | 0.11 | 0.11 | 87 | 1010.8 |
| 20260507034016 | 69 | 270 | 0.9 | 4.3 | 0.00 | 0.11 | 0.11 | 87 | 1011.2 |
| 20260507033015 | 69 | 270 | 0.9 | 1.7 | 0.00 | 0.11 | 0.11 | 86 | 1010.9 |
| 20260507032017 | 69 | 270 | 0.9 | 1.7 | 0.00 | 0.11 | 0.11 | 86 | 1010.7 |
| 20260507031017 | 69 | 0 | 0.9 | 1.7 | 0.00 | 0.11 | 0.11 | 86 | 1010.4 |
| 20260507030017 | 69 | 270 | 0.9 | 3.5 | 0.00 | 0.11 | 0.11 | 86 | 1010.3 |
| 20260507025017 | 69 | 270 | 0.9 | 2.6 | 0.00 | 0.11 | 0.11 | 86 | 1010.1 |
| 20260507024017 | 69 | 270 | 0.9 | 3.5 | 0.00 | 0.11 | 0.11 | 86 | 1010.2 |
| 20260507023017 | 69 | 0.0 | 1.7 | 0.00 | 0.11 | 0.11 | 86 | 1010.4 | |
| 20260507022017 | 69 | 270 | 0.9 | 3.5 | 0.00 | 0.11 | 0.11 | 86 | 1010.4 |
| 20260507021017 | 69 | 270 | 0.9 | 6.1 | 0.00 | 0.11 | 0.11 | 86 | 1010.8 |
| 20260507020037 | 69 | 270 | 0.9 | 3.5 | 0.00 | 0.11 | 0.11 | 86 | 1010.7 |
| 20260507015017 | 69 | 270 | 0.9 | 2.6 | 0.00 | 0.11 | 0.11 | 86 | 1010.7 |
| 20260507014037 | 69 | 0.0 | 1.7 | 0.00 | 0.11 | 0.11 | 86 | 1010.7 | |
| 20260507013037 | 69 | 0.0 | 3.5 | 0.00 | 0.11 | 0.11 | 85 | 1010.7 | |
| 20260507012057 | 69 | 270 | 0.9 | 4.3 | 0.00 | 0.11 | 0.11 | 85 | 1010.7 |
| 20260507011017 | 69 | 225 | 0.9 | 1.7 | 0.00 | 0.11 | 0.11 | 85 | 1010.7 |
| 20260507010017 | 69 | 0.0 | 0.9 | 0.00 | 0.11 | 0.11 | 85 | 1010.4 | |
| 20260507005017 | 69 | 270 | 0.9 | 4.3 | 0.00 | 0.11 | 0.11 | 84 | 1010.2 |
| 20260507004016 | 69 | 248 | 0.9 | 3.5 | 0.00 | 0.11 | 0.11 | 84 | 1010.5 |
| 20260507003016 | 69 | 270 | 0.9 | 4.3 | 0.00 | 0.11 | 0.11 | 83 | 1010.9 |
| 20260507002017 | 70 | 0.0 | 2.6 | 0.00 | 0.11 | 0.11 | 83 | 1010.7 | |
| 20260507001016 | 70 | 293 | 0.9 | 4.3 | 0.00 | 0.11 | 0.11 | 82 | 1010.8 |
| 20260507000116 | 70 | 270 | 0.9 | 4.3 | 0.00 | 0.11 | 0.11 | 82 | 1010.6 |
| 20260506235017 | 71 | 293 | 0.9 | 4.3 | 0.00 | 0.11 | 0.11 | 81 | 1010.5 |
| 20260506234017 | 71 | 270 | 0.9 | 2.6 | 0.00 | 0.11 | 0.11 | 80 | 1010.4 |
| 20260506233016 | 71 | 270 | 0.9 | 3.5 | 0.00 | 0.11 | 0.11 | 80 | 1010.2 |
| 20260506232017 | 72 | 270 | 1.7 | 3.5 | 0.00 | 0.11 | 0.11 | 79 | 1010.3 |
| 20260506231017 | 72 | 293 | 1.7 | 9.6 | 0.00 | 0.11 | 0.11 | 78 | 1010.3 |
| 20260506230016 | 72 | 293 | 0.9 | 4.3 | 0.00 | 0.11 | 0.11 | 78 | 1010.2 |
| 20260506225016 | 72 | 293 | 0.9 | 2.6 | 0.00 | 0.11 | 0.11 | 79 | 1010.3 |
| 20260506224016 | 72 | 270 | 0.9 | 2.6 | 0.00 | 0.11 | 0.11 | 79 | 1010.5 |
| 20260506223017 | 71 | 0 | 0.9 | 3.5 | 0.00 | 0.11 | 0.11 | 79 | 1010.3 |
| 20260506222016 | 71 | 270 | 0.9 | 7.0 | 0.00 | 0.11 | 0.11 | 78 | 1010.4 |
| 20260506221016 | 72 | 270 | 1.7 | 6.1 | 0.00 | 0.11 | 0.11 | 78 | 1010.5 |
| 20260506220037 | 72 | 293 | 1.7 | 6.1 | 0.00 | 0.11 | 0.11 | 78 | 1010.1 |
| 20260506215016 | 72 | 293 | 0.9 | 3.5 | 0.00 | 0.11 | 0.11 | 78 | 1010.2 |
| 20260506214016 | 72 | 293 | 2.6 | 6.1 | 0.00 | 0.11 | 0.11 | 78 | 1010.5 |
| 20260506213016 | 72 | 270 | 1.7 | 6.1 | 0.00 | 0.11 | 0.11 | 78 | 1010.3 |
| 20260506212016 | 72 | 270 | 1.7 | 7.0 | 0.00 | 0.11 | 0.11 | 78 | 1010.6 |
| 20260506211017 | 72 | 293 | 1.7 | 7.0 | 0.00 | 0.11 | 0.11 | 78 | 1010.4 |
| 20260506210016 | 72 | 293 | 1.7 | 11.3 | 0.00 | 0.11 | 0.11 | 78 | 1010.3 |
| 20260506205016 | 72 | 68 | 1.7 | 4.3 | 0.00 | 0.11 | 0.11 | 80 | 1010.5 |
| 20260506204016 | 71 | 0 | 0.9 | 2.6 | 0.00 | 0.11 | 0.11 | 81 | 1010.6 |
| 20260506203016 | 70 | 270 | 0.9 | 2.6 | 0.00 | 0.11 | 0.11 | 83 | 1010.3 |
| 20260506202037 | 69 | 23 | 0.9 | 2.6 | 0.00 | 0.11 | 0.11 | 83 | 1010.2 |
| 20260506201036 | 69 | 0.0 | 2.6 | 0.00 | 0.11 | 0.11 | 84 | 1010.8 | |
| 20260506200016 | 69 | 270 | 0.9 | 4.3 | 0.00 | 0.11 | 0.11 | 84 | 1010.7 |
| 20260506195022 | 69 | 0.0 | 1.7 | 0.00 | 0.11 | 0.11 | 84 | 1010.3 | |
| 20260506194016 | 68 | 270 | 0.9 | 2.6 | 0.00 | 0.11 | 0.11 | 84 | 1010.2 |
| 20260506193016 | 68 | 270 | 0.9 | 4.3 | 0.00 | 0.11 | 0.11 | 85 | 1010.2 |
| 20260506192016 | 68 | 270 | 0.9 | 3.5 | 0.00 | 0.11 | 0.11 | 86 | 1010.3 |
| 20260506191016 | 67 | 270 | 0.9 | 4.3 | 0.00 | 0.11 | 0.11 | 86 | 1010.9 |
| 20260506190016 | 67 | 45 | 0.9 | 3.5 | 0.00 | 0.11 | 0.11 | 87 | 1011.1 |
| 20260506185016 | 66 | 293 | 0.9 | 4.3 | 0.00 | 0.11 | 0.11 | 88 | 1011.3 |
| 20260506184016 | 66 | 293 | 0.9 | 5.2 | 0.00 | 0.11 | 0.11 | 88 | 1011.1 |
| 20260506183016 | 66 | 293 | 0.9 | 4.3 | 0.00 | 0.11 | 0.11 | 87 | 1011.3 |
| 20260506182016 | 66 | 293 | 1.7 | 6.1 | 0.00 | 0.11 | 0.11 | 86 | 1011.1 |
| 20260506181016 | 67 | 270 | 2.6 | 7.8 | 0.00 | 0.11 | 0.11 | 85 | 1011.7 |
| 20260506180016 | 67 | 270 | 0.9 | 6.1 | 0.00 | 0.11 | 0.11 | 86 | 1012.0 |
| 20260506175016 | 66 | 293 | 2.6 | 9.6 | 0.00 | 0.11 | 0.11 | 87 | 1011.8 |
| 20260506174016 | 66 | 293 | 1.7 | 5.2 | 0.00 | 0.11 | 0.11 | 88 | 1012.0 |
| 20260506173016 | 66 | 315 | 1.7 | 7.8 | 0.00 | 0.11 | 0.11 | 90 | 1011.9 |
| 20260506172016 | 65 | 293 | 0.9 | 7.0 | 0.00 | 0.11 | 0.11 | 90 | 1011.9 |
| 20260506171036 | 65 | 293 | 1.7 | 6.1 | 0.01 | 0.11 | 0.11 | 89 | 1011.7 |
| 20260506170016 | 65 | 270 | 1.7 | 4.3 | 0.01 | 0.11 | 0.11 | 90 | 1011.9 |
| 20260506165016 | 65 | 23 | 0.9 | 2.6 | 0.02 | 0.11 | 0.11 | 90 | 1012.1 |
| 20260506164016 | 65 | 270 | 0.9 | 6.1 | 0.02 | 0.11 | 0.11 | 91 | 1012.4 |
| 20260506163016 | 64 | 270 | 0.9 | 6.1 | 0.02 | 0.11 | 0.11 | 91 | 1012.4 |
| 20260506162016 | 64 | 68 | 0.9 | 4.3 | 0.02 | 0.11 | 0.11 | 91 | 1012.2 |
| 20260506161016 | 63 | 90 | 0.9 | 6.1 | 0.01 | 0.10 | 0.10 | 91 | 1012.1 |